Ховалинг

Таджикистан     38°20′37″N   69°58′21″E
темп.,
°C
ветер,
м/с
пор.,
м/с
влажн.,
%
обл.,
%
осадки,
мм/ч
давл.,
гПа
погр.,
м
6 мая, чт
чт623:00+13в2268100 0.0 101314
02:00+12вюв1173100 0.3 101411
05:00+11св2293100 1.4 101691
08:00+13в2285100 1.1 1016117
11:00+13ююв2382100 2.4 1017256
14:00+15св2270100 1.4 1017418
17:00+17сз1159100 1.4 1015923
20:00+13всв227491 0.1 101611
7 мая, пт
пт723:00+12в227296 0.1 101714
02:00+12в227113 0.0 101712
05:00+11в2171100 0.0 101711
08:00+16ссз0063100 0.0 1017241
11:00+19зюз325819 0.0 10161094
14:00+19з3261100 0.0 10151098
17:00+19з116119 0.1 1014823
20:00+14вюв11805 0.4 101511
8 мая, сб
сб823:00+13в21835 0.6 101712
02:00+12в2282100 1.3 101715
05:00+12в22745 1.5 101713
08:00+17юв01626 0.6 1017238
11:00+20зюз32569 1.9 10161137
14:00+21юз335864 1.7 10151385
17:00+20ююз236067 3.2 10141267
20:00+17вюв116368 0.1 101511
9 мая, вс
вс923:00+16в226968 0.1 101620
02:00+15в226768 0.0 101525
05:00+15в326368 0.0 101426
08:00+19вюв115650 0.0 1014212
11:00+22з22474 0.0 10131607
14:00+23зюз32452 0.0 10122107
17:00+22з11470 0.0 10111464
20:00+17всв22630 0.0 101211
10 мая, пн
пн1023:00+15всв32650 0.0 101219
02:00+15всв32640 0.0 101120
05:00+14всв32631 0.0 101118
08:00+20в01530 0.0 1010243
11:00+23зюз22405 0.0 10091679
14:00+24зюз333858 0.0 10081827
17:00+23зюз11395 0.0 10071474
20:00+17вюв2252100 0.0 101011